Location: Krakow
(50.0830°N, 19.9170°E)
Time: 09:45:52
(UTC+02:00)

S-56A Canister/Altair - Pass Details

Date: 03 February 2023
Orbit: 639 x 2493 km, 38.9° (Epoch: 30 March)

Event Time Altitude Azimuth Distance (km) Brightness Sun altitude
Rises 10:46:45 0° 217° (SW) 2,944 11.0 21.7°
Reaches altitude 10° 10:49:37 10° 196° (SSW) 2,115 10.9 21.9°
Maximum altitude 10:52:43 17° 155° (SSE) 1,819 11.9 22.0°
Drops below altitude 10° 10:56:17 10° 115° (ESE) 2,492 10.8 22.2°
Sets 11:00:05 0° 97° (E) 3,736 11.3 22.3°
